This demonstration page uses our WeatherBlox Daily Observations layout. Learn more.

Left ArrowRight Arrow

40.92945, -100.16068

Hourly Observations for February 21, 2022

Temp ( °F °C ) Dew Point ( °F °C ) Humidity (%) Winds ( mph kmh ) Pressure ( in mb ) Visibility ( mi km ) Precip ( " mm )
12:15 am 00:15 Clear 32 0.1 19 -7.4 57 57 E 5 7 29.76 1008 10 16 0.00 0.00
12:35 am 00:35 Clear 30 -1.2 18 -8 60 60 E 6 9 29.77 1008 10 16 0.00 0.00
12:55 am 00:55 Clear 30 -1.1 18 -7.7 61 61 E 7 11 29.76 1008 10 16 0.00 0.00
1:15 am 01:15 Clear 32 -0.1 19 -7.3 59 59 E 6 9 29.74 1007 10 16 0.00 0.00
1:35 am 01:35 Clear 36 2.1 21 -6 55 55 ESE 8 13 29.71 1006 10 16 0.00 0.00
1:55 am 01:55 Clear 35 1.5 21 -6.3 57 57 ESE 8 13 29.70 1006 10 16 0.00 0.00
2:15 am 02:15 Clear 35 1.4 21 -6.3 57 57 ESE 6 9 29.70 1006 10 16 0.00 0.00
2:35 am 02:35 Clear 33 0.4 20 -6.6 60 60 E 6 9 29.70 1006 10 16 0.00 0.00
2:55 am 02:55 Clear 30 -0.9 19 -7.1 63 63 E 6 9 29.70 1006 10 16 0.00 0.00
3:15 am 03:15 Clear 31 -0.5 20 -6.9 62 62 E 5 7 29.70 1006 10 16 0.00 0.00
3:35 am 03:35 Clear 28 -2.2 18 -7.8 66 66 ENE 6 9 29.71 1006 10 16 0.00 0.00
3:55 am 03:55 Clear 28 -2.1 18 -7.8 65 65 NNE 5 7 29.71 1006 10 16 0.00 0.00
4:15 am 04:15 Clear 27 -3 18 -8 69 69 NNE 6 9 29.72 1006 10 16 0.00 0.00
4:35 am 04:35 Clear 29 -1.7 19 -7.5 65 65 NE 6 9 29.70 1006 10 16 0.00 0.00
4:55 am 04:55 Clear 32 0.1 20 -6.9 60 60 NE 10 17 29.67 1005 10 16 0.00 0.00
5:15 am 05:15 Clear 34 1 21 -6.2 59 59 NE 10 17 29.68 1005 10 16 0.00 0.00
5:35 am 05:35 Clear 34 1 21 -6 60 60 NE 12 19 29.69 1005 10 16 0.00 0.00
5:55 am 05:55 Clear 33 0.3 21 -6 63 63 NE 14 22 29.69 1006 10 16 0.00 0.00
6:15 am 06:15 Clear 32 -0.1 21 -6 65 65 NE 15 24 29.71 1006 10 16 0.00 0.00
6:35 am 06:35 Clear 30 -0.9 22 -5.4 72 72 NE 14 22 29.71 1006 10 16 0.00 0.00
6:55 am 06:55 Clear 29 -1.5 23 -4.9 78 78 NE 15 24 29.73 1007 10 16 0.00 0.00
7:15 am 07:15 Clear 28 -2.1 23 -4.8 82 82 NNE 14 22 29.75 1007 10 16 0.00 0.00
7:35 am 07:35 Mostly Cloudy 27 -2.9 23 -5.2 84 84 N 14 22 29.76 1008 10 16 0.00 0.00
7:55 am 07:55 Cloudy 25 -3.9 20 -6.4 83 83 N 16 26 29.79 1009 10 16 0.00 0.00
8:15 am 08:15 Cloudy 24 -4.5 19 -7.2 82 82 N 18 30 29.82 1010 10 16 0.00 0.00
8:35 am 08:35 Cloudy 22 -5.4 17 -8.1 82 82 N 20 31 29.84 1011 10 16 0.00 0.00
8:55 am 08:55 Cloudy 21 -6.1 16 -9.1 80 80 N 21 33 29.86 1011 10 16 0.00 0.00
9:15 am 09:15 Cloudy 20 -6.5 15 -9.6 79 79 N 21 33 29.87 1012 10 16 0.00 0.00
9:35 am 09:35 Cloudy 20 -6.7 14 -10 78 78 N 23 37 29.89 1012 10 16 0.00 0.00
9:55 am 09:55 Cloudy 20 -6.9 13 -10.4 76 76 N 24 39 29.91 1013 10 16 0.00 0.00
10:15 am 10:15 Cloudy 20 -6.8 13 -10.6 75 75 N 22 35 29.92 1013 10 16 0.00 0.00
10:35 am 10:35 Cloudy 20 -6.4 13 -10.7 72 72 N 21 33 29.91 1013 10 16 0.00 0.00
10:55 am 10:55 Cloudy 20 -6.5 11 -11.4 69 69 N 24 39 29.92 1013 10 16 0.00 0.00
11:15 am 11:15 Cloudy 20 -6.4 10 -12.1 64 64 N 26 43 29.93 1014 10 16 0.00 0.00
11:35 am 11:35 Cloudy 18 -7.9 8 -13.6 64 64 N 24 39 29.96 1014 10 16 0.00 0.00
11:55 am 11:55 Mostly Cloudy 18 -7.7 7 -13.7 62 62 N 20 31 29.94 1014 10 16 0.00 0.00
12:15 pm 12:15 Mostly Cloudy 20 -6.8 9 -12.7 63 63 N 22 35 29.94 1014 10 16 0.00 0.00
12:35 pm 12:35 Cloudy 20 -6.8 10 -12.4 65 65 N 26 43 29.94 1014 10 16 0.00 0.00
12:55 pm 12:55 Cloudy 19 -7 9 -12.6 65 65 NNE 25 41 29.94 1014 10 16 0.00 0.00
1:15 pm 13:15 Cloudy 20 -6.9 9 -12.9 63 63 N 26 43 29.94 1014 10 16 0.00 0.00
1:35 pm 13:35 Cloudy 19 -7.5 8 -13.6 62 62 N 22 35 29.95 1014 10 16 0.00 0.00
1:55 pm 13:55 Cloudy 18 -7.6 8 -13.5 63 63 N 23 37 29.95 1014 10 16 0.00 0.00
2:15 pm 14:15 Cloudy 18 -7.7 7 -13.7 62 62 N 22 35 29.96 1015 10 16 0.00 0.00
2:35 pm 14:35 Cloudy 18 -8 6 -14.4 60 60 N 25 41 29.97 1015 10 16 0.00 0.00
2:55 pm 14:55 Cloudy 17 -8.1 6 -14.5 60 60 N 25 41 29.97 1015 10 16 0.00 0.00
3:15 pm 15:15 Cloudy 16 -8.7 6 -14.6 63 63 N 24 39 29.99 1015 10 16 0.00 0.00
3:35 pm 15:35 Cloudy 16 -9.1 5 -15 63 63 N 23 37 30.01 1016 10 16 0.00 0.00
3:55 pm 15:55 Cloudy 15 -9.6 5 -15 65 65 N 22 35 30.02 1017 10 16 0.00 0.00
4:15 pm 16:15 Cloudy 14 -10.1 5 -15.2 67 67 N 22 35 30.03 1017 10 16 0.00 0.00
4:35 pm 16:35 Cloudy 14 -10.2 5 -15 68 68 N 25 41 30.04 1017 10 16 0.00 0.00
4:55 pm 16:55 Cloudy 12 -11 4 -15.3 71 71 N 26 43 30.06 1018 10 16 0.00 0.00
5:15 pm 17:15 Cloudy 12 -11.2 4 -15.5 71 71 N 21 33 30.07 1018 10 16 0.00 0.00
5:35 pm 17:35 Cloudy 11 -11.4 4 -15.7 71 71 N 21 33 30.10 1019 10 16 0.00 0.00
5:55 pm 17:55 Cloudy 11 -11.6 3 -16 70 70 N 23 37 30.11 1020 10 16 0.00 0.00
6:15 pm 18:15 Cloudy 10 -12 2 -16.5 69 69 N 23 37 30.13 1020 10 16 0.00 0.00
6:35 pm 18:35 Cloudy 9 -12.8 1 -17.3 69 69 N 23 37 30.15 1021 10 16 0.00 0.00
6:55 pm 18:55 Cloudy 8 -13.1 0 -18 67 67 N 25 41 30.17 1022 10 16 0.00 0.00
7:15 pm 19:15 Cloudy 7 -14 -2 -18.8 67 67 N 28 44 30.18 1022 10 16 0.00 0.00
7:35 pm 19:35 Cloudy 6 -14.2 -2 -19 67 67 N 32 52 30.20 1023 10 16 0.00 0.00
7:55 pm 19:55 Cloudy 6 -14.5 -3 -19.7 65 65 N 28 44 30.20 1023 10 16 0.00 0.00
8:15 pm 20:15 Cloudy 6 -14.5 -4 -20 63 63 NNW 31 50 30.21 1023 10 16 0.00 0.00
8:35 pm 20:35 Cloudy 6 -14.6 -4 -20.1 63 63 N 26 43 30.20 1023 10 16 0.00 0.00
8:55 pm 20:55 Cloudy 6 -14.5 -4 -20 63 63 N 25 41 30.20 1023 10 16 0.00 0.00
9:15 pm 21:15 Cloudy 6 -14.5 -4 -20 63 63 N 28 44 30.20 1023 10 16 0.00 0.00
9:35 pm 21:35 Cloudy 6 -14.7 -4 -20.2 63 63 N 25 41 30.22 1023 10 16 0.00 0.00
9:55 pm 21:55 Cloudy 5 -15.2 -5 -20.5 64 64 N 26 43 30.23 1024 10 16 0.00 0.00
10:15 pm 22:15 Cloudy 4 -15.6 -5 -20.6 66 66 N 21 33 30.22 1023 10 16 0.00 0.00
10:35 pm 22:35 Windy with Snow Likely 4 -15.8 -5 -20.5 67 67 NNW 26 43 30.24 1024 7 11 0.00 0.00
10:55 pm 22:55 Cloudy 3 -16.2 -6 -21.2 66 66 NNW 32 52 30.27 1025 7 11 0.00 0.00
11:15 pm 23:15 Cloudy 2 -16.5 -7 -21.5 66 66 NNW 28 44 30.28 1025 7 11 0.00 0.00
11:35 pm 23:35 Windy with Snow Likely 2 -16.7 -6 -21.2 68 68 NNW 29 46 30.28 1026 4 6 0.00 0.00
11:55 pm 23:55 Windy with Snow Likely 1 -17 -7 -21.6 68 68 NNW 30 48 30.30 1026 5 8 0.00 0.00

Powered by AerisWeather